| time (UTC) | temp F | wind direction | speed MPH | gust MPH | rain 1hr in | rain 24hr in | rain mn in | humidity % | barometer mb |
| 20260505164528 | 80 | 180 | 3.0 | 10.0 | 0.00 | 0.00 | 0.00 | 81 | 1011.7 |
| 20260505163029 | 79 | 172 | 3.0 | 10.0 | 0.00 | 0.00 | 0.00 | 81 | 1011.6 |
| 20260505161530 | 79 | 171 | 3.0 | 15.0 | 0.00 | 0.00 | 0.00 | 81 | 1011.5 |
| 20260505153028 | 79 | 0 | 3.0 | 16.0 | 0.00 | 0.00 | 0.00 | 82 | 1011.4 |
| 20260505151528 | 78 | 0 | 1.0 | 9.0 | 0.00 | 0.00 | 0.00 | 82 | 1011.2 |
| 20260505124532 | 74 | 115 | 1.0 | 7.0 | 0.00 | 0.00 | 0.00 | 86 | 1010.8 |
| 20260505123035 | 74 | 157 | 0.0 | 7.0 | 0.00 | 0.00 | 0.00 | 87 | 1010.7 |
| 20260505121530 | 74 | 171 | 2.0 | 7.0 | 0.00 | 0.00 | 0.00 | 87 | 1010.4 |
| 20260505120030 | 74 | 119 | 1.0 | 9.0 | 0.00 | 0.00 | 0.00 | 87 | 1010.3 |
| 20260505114618 | 74 | 0 | 2.0 | 6.0 | 0.00 | 0.00 | 0.00 | 87 | 1010.7 |
| 20260505114529 | 74 | 0 | 2.0 | 6.0 | 0.00 | 0.00 | 0.00 | 87 | 1010.7 |
| 20260505113028 | 74 | 223 | 3.0 | 9.0 | 0.00 | 0.00 | 0.00 | 86 | 1010.5 |
| 20260505111528 | 74 | 171 | 1.0 | 8.0 | 0.00 | 0.00 | 0.00 | 86 | 1010.4 |
| 20260505101548 | 73 | 194 | 1.0 | 7.0 | 0.00 | 0.00 | 0.00 | 86 | 1010.5 |
| 20260505100053 | 73 | 0 | 1.0 | 7.0 | 0.00 | 0.00 | 0.00 | 86 | 1010.6 |
| 20260505094532 | 72 | 120 | 1.0 | 8.0 | 0.00 | 0.00 | 0.00 | 86 | 1010.7 |
| 20260505093028 | 73 | 0 | 2.0 | 8.0 | 0.00 | 0.00 | 0.00 | 86 | 1010.7 |
| 20260505091528 | 72 | 161 | 1.0 | 8.0 | 0.00 | 0.00 | 0.00 | 86 | 1010.9 |
| 20260505090029 | 72 | 155 | 1.0 | 5.0 | 0.00 | 0.00 | 0.00 | 86 | 1011.1 |
| 20260505084529 | 72 | 140 | 1.0 | 6.0 | 0.00 | 0.00 | 0.00 | 86 | 1011.0 |
| 20260505083028 | 72 | 163 | 1.0 | 7.0 | 0.00 | 0.00 | 0.00 | 85 | 1011.0 |
| 20260505081528 | 72 | 116 | 1.0 | 8.0 | 0.00 | 0.00 | 0.00 | 85 | 1011.4 |
| 20260505080028 | 72 | 190 | 1.0 | 8.0 | 0.00 | 0.00 | 0.00 | 85 | 1011.3 |
| 20260505074531 | 72 | 174 | 2.0 | 8.0 | 0.00 | 0.00 | 0.00 | 85 | 1011.5 |
| 20260505073037 | 72 | 0 | 2.0 | 7.0 | 0.00 | 0.00 | 0.00 | 85 | 1011.6 |
| 20260505071530 | 72 | 145 | 2.0 | 8.0 | 0.00 | 0.00 | 0.00 | 84 | 1011.8 |
| 20260505070030 | 72 | 134 | 2.0 | 9.0 | 0.00 | 0.00 | 0.00 | 84 | 1011.9 |
| 20260505064527 | 72 | 171 | 1.0 | 9.0 | 0.00 | 0.00 | 0.00 | 84 | 1012.1 |
| 20260505063030 | 72 | 119 | 2.0 | 10.0 | 0.00 | 0.00 | 0.00 | 83 | 1012.3 |
| 20260505061537 | 72 | 161 | 2.0 | 7.0 | 0.00 | 0.00 | 0.00 | 83 | 1012.7 |
| 20260505060030 | 72 | 0 | 1.0 | 9.0 | 0.00 | 0.00 | 0.00 | 83 | 1012.6 |
| 20260505054529 | 72 | 148 | 1.0 | 8.0 | 0.00 | 0.00 | 0.00 | 82 | 1012.6 |
| 20260505053038 | 72 | 192 | 2.0 | 8.0 | 0.00 | 0.00 | 0.00 | 82 | 1012.7 |
| 20260505051538 | 72 | 148 | 1.0 | 7.0 | 0.00 | 0.00 | 0.00 | 82 | 1012.6 |
| 20260505041528 | 73 | 0 | 2.0 | 7.0 | 0.00 | 0.00 | 0.00 | 79 | 1012.9 |
| 20260505040029 | 73 | 182 | 2.0 | 9.0 | 0.00 | 0.00 | 0.00 | 79 | 1013.2 |
| 20260505034532 | 73 | 97 | 2.0 | 11.0 | 0.00 | 0.00 | 0.00 | 78 | 1013.4 |
| 20260505033028 | 74 | 0 | 2.0 | 9.0 | 0.00 | 0.00 | 0.00 | 77 | 1013.3 |
| 20260505031537 | 74 | 171 | 3.0 | 9.0 | 0.00 | 0.00 | 0.00 | 77 | 1013.2 |
| 20260505030030 | 74 | 134 | 3.0 | 10.0 | 0.00 | 0.00 | 0.00 | 77 | 1013.1 |
| 20260505024527 | 74 | 246 | 3.0 | 9.0 | 0.00 | 0.00 | 0.00 | 76 | 1013.1 |
| 20260505023027 | 74 | 143 | 2.0 | 10.0 | 0.00 | 0.00 | 0.00 | 76 | 1013.1 |
| 20260505021535 | 74 | 122 | 2.0 | 10.0 | 0.00 | 0.00 | 0.00 | 76 | 1013.0 |
| 20260505020036 | 74 | 141 | 3.0 | 13.0 | 0.00 | 0.00 | 0.00 | 75 | 1013.0 |
| 20260505014528 | 75 | 139 | 4.0 | 11.0 | 0.00 | 0.00 | 0.00 | 75 | 1012.8 |
| 20260505013031 | 75 | 123 | 3.0 | 9.0 | 0.00 | 0.00 | 0.00 | 74 | 1012.5 |
| 20260505011535 | 75 | 126 | 3.0 | 13.0 | 0.00 | 0.00 | 0.00 | 73 | 1012.7 |
| 20260505010050 | 76 | 89 | 4.0 | 11.0 | 0.00 | 0.00 | 0.00 | 73 | 1012.5 |
| 20260505004530 | 76 | 148 | 4.0 | 13.0 | 0.00 | 0.00 | 0.00 | 72 | 1012.3 |
| 20260505003032 | 77 | 173 | 3.0 | 10.0 | 0.00 | 0.00 | 0.00 | 71 | 1012.4 |
| 20260505001528 | 77 | 148 | 4.0 | 10.0 | 0.00 | 0.00 | 0.00 | 70 | 1012.3 |
| 20260505000041 | 78 | 103 | 4.0 | 8.0 | 0.00 | 0.00 | 0.00 | 70 | 1012.4 |
| 20260504234529 | 78 | 105 | 4.0 | 11.0 | 0.00 | 0.00 | 0.00 | 69 | 1012.6 |
| 20260504233031 | 78 | 220 | 3.0 | 13.0 | 0.00 | 0.00 | 0.00 | 69 | 1012.5 |
| 20260504231527 | 78 | 112 | 5.0 | 15.0 | 0.00 | 0.00 | 0.00 | 68 | 1012.8 |
| 20260504230039 | 78 | 131 | 5.0 | 13.0 | 0.00 | 0.00 | 0.00 | 68 | 1012.9 |
| 20260504224530 | 79 | 175 | 5.0 | 10.0 | 0.00 | 0.00 | 0.00 | 67 | 1013.1 |
| 20260504223029 | 79 | 111 | 3.0 | 11.0 | 0.00 | 0.00 | 0.00 | 67 | 1013.1 |
| 20260504221542 | 79 | 122 | 2.0 | 11.0 | 0.00 | 0.00 | 0.00 | 66 | 1013.3 |
| 20260504220033 | 80 | 155 | 3.0 | 9.0 | 0.00 | 0.00 | 0.00 | 64 | 1013.4 |
| 20260504214528 | 81 | 162 | 4.0 | 14.0 | 0.00 | 0.00 | 0.00 | 63 | 1013.4 |
| 20260504213033 | 81 | 167 | 3.0 | 14.0 | 0.00 | 0.00 | 0.00 | 61 | 1013.5 |
| 20260504211533 | 82 | 112 | 3.0 | 12.0 | 0.00 | 0.00 | 0.00 | 60 | 1013.8 |
| 20260504210031 | 83 | 97 | 3.0 | 13.0 | 0.00 | 0.00 | 0.00 | 58 | 1013.8 |
| 20260504204531 | 83 | 82 | 3.0 | 11.0 | 0.00 | 0.00 | 0.00 | 59 | 1014.0 |
| 20260504203043 | 82 | 163 | 2.0 | 11.0 | 0.00 | 0.00 | 0.00 | 58 | 1014.2 |
| 20260504201530 | 83 | 245 | 3.0 | 10.0 | 0.00 | 0.00 | 0.00 | 57 | 1014.5 |
| 20260504200027 | 83 | 123 | 4.0 | 11.0 | 0.00 | 0.00 | 0.00 | 56 | 1014.8 |
| 20260504194539 | 83 | 148 | 2.0 | 11.0 | 0.00 | 0.00 | 0.00 | 56 | 1014.8 |
| 20260504193030 | 82 | 109 | 3.0 | 10.0 | 0.00 | 0.00 | 0.00 | 56 | 1014.9 |
| 20260504191536 | 82 | 97 | 4.0 | 13.0 | 0.00 | 0.00 | 0.00 | 56 | 1015.0 |
| 20260504190030 | 83 | 162 | 3.0 | 10.0 | 0.00 | 0.00 | 0.00 | 55 | 1015.3 |
| 20260504184530 | 83 | 169 | 4.0 | 12.0 | 0.00 | 0.00 | 0.00 | 55 | 1015.4 |
| 20260504183030 | 82 | 103 | 3.0 | 14.0 | 0.00 | 0.00 | 0.00 | 56 | 1015.3 |
| 20260504181530 | 82 | 184 | 3.0 | 10.0 | 0.00 | 0.00 | 0.00 | 55 | 1015.7 |
| 20260504180030 | 81 | 192 | 4.0 | 15.0 | 0.00 | 0.00 | 0.00 | 56 | 1015.9 |
| 20260504174528 | 81 | 169 | 2.0 | 12.0 | 0.00 | 0.00 | 0.00 | 57 | 1016.1 |
| 20260504173034 | 80 | 153 | 3.0 | 13.0 | 0.00 | 0.00 | 0.00 | 58 | 1016.2 |
| 20260504171534 | 80 | 96 | 3.0 | 10.0 | 0.00 | 0.00 | 0.00 | 58 | 1016.4 |